Location: Gungolding
(48.9246°N, 11.3502°E)
Time: 22:10:27
(UTC+02:00)

A-11 Canister half - Visible Passes

Search period start: 30 March 2020 00:00
Search period end: 09 April 2020 00:00
Orbit: 1517 x 1683 km, 47.2° (Epoch: 30 March)

Date Brightness Start Highest point End Pass type
(mag) Time Alt. Az. Time Alt. Az. Time Alt. Az.
30 Mar 10.6 05:48:48 10° S 05:56:37 28° SE 06:04:36 10° E visible
31 Mar 10.6 05:26:13 10° S 05:33:48 26° SE 05:41:32 10° E visible
01 Apr 10.6 05:03:39 10° S 05:10:59 25° SE 05:18:27 10° E visible
02 Apr 10.6 04:41:08 10° S 04:48:10 23° SE 04:55:21 10° E visible
03 Apr 10.7 04:18:38 10° S 04:25:22 21° SE 04:32:13 10° E visible
04 Apr 10.7 03:56:44 11° SSE 04:02:33 20° SE 04:09:04 10° E visible
04 Apr 9.7 05:56:25 10° SW 06:05:45 53° SSE 06:15:23 10° ENE visible
05 Apr 10.6 03:35:11 13° SSE 03:39:46 18° SE 03:45:53 10° E visible
05 Apr 9.7 05:33:37 10° SW 05:42:52 50° SSE 05:52:25 10° ENE visible
06 Apr 10.6 03:13:35 14° SSE 03:16:58 17° SE 03:22:39 10° E visible
06 Apr 9.7 05:11:47 13° SW 05:20:00 48° SE 05:29:27 10° ENE visible
07 Apr 10.6 02:51:55 14° SE 02:54:12 16° SE 02:59:21 10° E visible
07 Apr 9.7 04:50:06 18° SSW 04:57:07 46° SE 05:06:28 10° ENE visible
08 Apr 10.7 02:30:11 14° SE 02:31:25 14° ESE 02:36:00 10° E visible
08 Apr 9.7 04:28:23 22° SSW 04:34:15 44° SE 04:43:29 10° ENE visible
